When you browse on this site, cookies collect data to enhance your experience and personalize the content and advertising you see.
Visit our Privacy Policy to learn more. By continuing to use the site, you agree to this use of cookies and data.
  • In Hungary
  • List of Countries
  • For 7 days
  • Water Temperature
  • Satellite Maps
  • Weather Map
  • News
  • Weather Widgets
  • user-avatar
    Login

    Hourly Weather Esmeraldas

    Today, 12 December, Wednesday

    Time Temperature Precipitation Wind Pressure Humidity
    00:00 +27°C° 0.1 mm 2 mps 756 mmHg 86%
    01:00 +27°C° 0.1 mm 2 mps 756 mmHg 87%
    02:00 +27°C° 0.5 mm 3 mps 756 mmHg 87%
    03:00 +27°C° 0.5 mm 3 mps 755 mmHg 87%
    04:00 +27°C° 0.5 mm 3 mps 755 mmHg 87%
    05:00 +27°C° 0.7 mm 3 mps 755 mmHg 87%
    06:00 +27°C° 0.7 mm 3 mps 756 mmHg 87%
    07:00 +27°C° 0.7 mm 3 mps 756 mmHg 87%
    08:00 +27°C° 0.5 mm 3 mps 756 mmHg 86%
    09:00 +27°C° 0.5 mm 3 mps 756 mmHg 85%
    10:00 +27°C° 0.5 mm 3 mps 757 mmHg 84%
    11:00 +28°C° 0.2 mm 3 mps 756 mmHg 81%
    12:00 +28°C° 0.2 mm 3 mps 756 mmHg 78%
    13:00 +29°C° 0.2 mm 3 mps 755 mmHg 76%
    14:00 +29°C° 0 mm 3 mps 755 mmHg 75%
    15:00 +29°C° 0 mm 3 mps 754 mmHg 74%
    16:00 +30°C° 0 mm 4 mps 754 mmHg 73%
    17:00 +29°C° 0.2 mm 3 mps 754 mmHg 76%
    18:00 +28°C° 0.2 mm 3 mps 754 mmHg 80%
    19:00 +27°C° 0.2 mm 3 mps 754 mmHg 84%
    20:00 +27°C° 0.2 mm 3 mps 755 mmHg 84%
    21:00 +27°C° 0.2 mm 3 mps 755 mmHg 84%
    22:00 +27°C° 0.2 mm 3 mps 756 mmHg 84%
    23:00 +27°C° 0.2 mm 3 mps 756 mmHg 84%

    Tomorrow, 13 December, Thursday

    Time Temperature Precipitation Wind Pressure Humidity
    00:00 +27°C° 0.2 mm 3 mps 755 mmHg 84%
    01:00 +27°C° 0.2 mm 3 mps 755 mmHg 84%
    02:00 +26°C° 0.2 mm 3 mps 755 mmHg 85%
    03:00 +26°C° 0.2 mm 3 mps 755 mmHg 85%
    04:00 +26°C° 0.2 mm 3 mps 754 mmHg 86%
    05:00 +26°C° 0.4 mm 3 mps 755 mmHg 86%
    06:00 +26°C° 0.4 mm 3 mps 755 mmHg 86%
    07:00 +26°C° 0.4 mm 3 mps 755 mmHg 86%
    08:00 +28°C° 0.5 mm 2 mps 756 mmHg 81%
    09:00 +29°C° 0.5 mm 2 mps 756 mmHg 76%
    10:00 +30°C° 0.5 mm 2 mps 757 mmHg 71%
    11:00 +31°C° 1.1 mm 3 mps 756 mmHg 71%
    12:00 +32°C° 1.1 mm 4 mps 755 mmHg 71%
    13:00 +32°C° 1.1 mm 4 mps 755 mmHg 71%
    14:00 +30°C° 1.6 mm 5 mps 754 mmHg 74%
    15:00 +30°C° 1.6 mm 5 mps 754 mmHg 77%
    16:00 +29°C° 1.6 mm 5 mps 754 mmHg 80%
    17:00 +28°C° 1.4 mm 5 mps 754 mmHg 83%
    18:00 +28°C° 1.4 mm 5 mps 754 mmHg 85%
    19:00 +27°C° 1.4 mm 5 mps 755 mmHg 88%
    20:00 +27°C° 1.6 mm 5 mps 755 mmHg 89%
    21:00 +27°C° 1.6 mm 5 mps 756 mmHg 89%
    22:00 +27°C° 1.6 mm 5 mps 757 mmHg 90%
    23:00 +26°C° 2.6 mm 5 mps 756 mmHg 91%

    Day after tomorrow, 14 December, Friday

    Time Temperature Precipitation Wind Pressure Humidity
    00:00 +26°C° 2.6 mm 5 mps 756 mmHg 91%
    01:00 +26°C° 2.6 mm 5 mps 756 mmHg 92%
    02:00 +26°C° 1.6 mm 5 mps 755 mmHg 92%
    03:00 +26°C° 1.6 mm 5 mps 755 mmHg 92%
    04:00 +26°C° 1.6 mm 5 mps 755 mmHg 92%
    05:00 +26°C° 1 mm 5 mps 755 mmHg 92%
    06:00 +26°C° 1 mm 4 mps 755 mmHg 91%
    07:00 +26°C° 1 mm 4 mps 756 mmHg 91%
    08:00 +26°C° 0.4 mm 4 mps 756 mmHg 89%
    09:00 +27°C° 0.4 mm 4 mps 757 mmHg 87%
    10:00 +28°C° 0.4 mm 4 mps 757 mmHg 84%
    11:00 +28°C° 0.7 mm 3 mps 757 mmHg 83%
    12:00 +28°C° 0.7 mm 3 mps 756 mmHg 82%
    13:00 +28°C° 0.7 mm 2 mps 755 mmHg 81%
    14:00 +28°C° 1.2 mm 2 mps 755 mmHg 82%
    15:00 +28°C° 1.2 mm 3 mps 754 mmHg 83%
    16:00 +28°C° 1.2 mm 3 mps 754 mmHg 83%
    17:00 +27°C° 0.8 mm 2 mps 754 mmHg 85%
    18:00 +27°C° 0.8 mm 2 mps 755 mmHg 87%
    19:00 +26°C° 0.8 mm 2 mps 755 mmHg 88%
    20:00 +26°C° 0.3 mm 2 mps 756 mmHg 89%
    21:00 +26°C° 0.3 mm 2 mps 756 mmHg 89%
    22:00 +26°C° 0.3 mm 2 mps 757 mmHg 90%
    23:00 +26°C° 0.4 mm 2 mps 757 mmHg 90%

    15 December, Saturday

    Time Temperature Precipitation Wind Pressure Humidity
    00:00 +26°C° 0.4 mm 2 mps 756 mmHg 90%
    01:00 +26°C° 0.4 mm 2 mps 756 mmHg 90%
    02:00 +26°C° 0.3 mm 2 mps 756 mmHg 89%
    03:00 +26°C° 0.3 mm 2 mps 755 mmHg 89%
    04:00 +26°C° 0.3 mm 2 mps 755 mmHg 88%
    05:00 +26°C° 0.3 mm 2 mps 755 mmHg 88%
    06:00 +26°C° 0.3 mm 3 mps 756 mmHg 87%
    07:00 +26°C° 0.3 mm 3 mps 756 mmHg 87%
    08:00 +27°C° 0.1 mm 3 mps 756 mmHg 84%
    09:00 +28°C° 0.1 mm 3 mps 757 mmHg 81%
    10:00 +29°C° 0.1 mm 3 mps 757 mmHg 78%
    11:00 +29°C° 0.1 mm 3 mps 756 mmHg 75%
    12:00 +30°C° 0.1 mm 3 mps 756 mmHg 72%
    13:00 +31°C° 0.1 mm 3 mps 755 mmHg 68%
    14:00 +31°C° 0 mm 3 mps 755 mmHg 70%
    15:00 +30°C° 0 mm 3 mps 754 mmHg 71%
    16:00 +30°C° 0 mm 3 mps 753 mmHg 73%
    17:00 +29°C° 0.3 mm 3 mps 754 mmHg 78%
    18:00 +28°C° 0.3 mm 3 mps 754 mmHg 83%
    19:00 +27°C° 0.3 mm 3 mps 755 mmHg 88%
    20:00 +27°C° 0.2 mm 2 mps 755 mmHg 88%
    21:00 +27°C° 0.2 mm 2 mps 756 mmHg 89%
    22:00 +27°C° 0.2 mm 2 mps 756 mmHg 89%
    23:00 +27°C° 0.1 mm 2 mps 756 mmHg 89%

    16 December, Sunday

    Time Temperature Precipitation Wind Pressure Humidity
    00:00 +27°C° 0.1 mm 2 mps 756 mmHg 90%
    01:00 +27°C° 0.1 mm 2 mps 756 mmHg 90%
    02:00 +27°C° 0.2 mm 2 mps 755 mmHg 90%
    03:00 +26°C° 0.2 mm 2 mps 755 mmHg 91%
    04:00 +26°C° 0.2 mm 2 mps 755 mmHg 91%
    05:00 +26°C° 0.1 mm 2 mps 755 mmHg 90%
    06:00 +26°C° 0.1 mm 2 mps 756 mmHg 90%
    07:00 +27°C° 0.1 mm 2 mps 756 mmHg 89%
    08:00 +28°C° 0.1 mm 2 mps 756 mmHg 83%
    09:00 +30°C° 0.1 mm 2 mps 756 mmHg 77%
    10:00 +31°C° 0.1 mm 1 mps 756 mmHg 71%
    11:00 +32°C° 0.1 mm 2 mps 756 mmHg 69%
    12:00 +32°C° 0.1 mm 2 mps 755 mmHg 66%
    13:00 +33°C° 0.1 mm 3 mps 755 mmHg 64%
    14:00 +33°C° 0.4 mm 3 mps 754 mmHg 67%
    15:00 +32°C° 0.4 mm 4 mps 754 mmHg 70%
    16:00 +32°C° 0.4 mm 4 mps 753 mmHg 73%
    17:00 +30°C° 0.3 mm 4 mps 754 mmHg 77%
    18:00 +29°C° 0.3 mm 4 mps 754 mmHg 82%
    19:00 +28°C° 0.3 mm 3 mps 755 mmHg 86%
    20:00 +28°C° 0.1 mm 3 mps 755 mmHg 87%
    21:00 +27°C° 0.1 mm 3 mps 756 mmHg 87%
    22:00 +27°C° 0.1 mm 3 mps 756 mmHg 88%
    23:00 +27°C° 0.2 mm 3 mps 756 mmHg 88%

    17 December, Monday

    Time Temperature Precipitation Wind Pressure Humidity
    00:00 +27°C° 0.2 mm 3 mps 755 mmHg 88%
    01:00 +27°C° 0.2 mm 3 mps 755 mmHg 88%
    02:00 +26°C° 0.4 mm 3 mps 755 mmHg 89%
    03:00 +26°C° 0.4 mm 3 mps 755 mmHg 89%
    04:00 +26°C° 0.4 mm 4 mps 754 mmHg 90%
    05:00 +26°C° 0.3 mm 4 mps 755 mmHg 89%
    06:00 +26°C° 0.3 mm 4 mps 755 mmHg 89%
    07:00 +26°C° 0.3 mm 4 mps 756 mmHg 88%
    08:00 +27°C° 0.2 mm 4 mps 756 mmHg 84%
    09:00 +28°C° 0.2 mm 3 mps 756 mmHg 79%
    10:00 +29°C° 0.2 mm 3 mps 756 mmHg 74%
    11:00 +30°C° 0 mm 3 mps 756 mmHg 71%
    12:00 +31°C° 0 mm 3 mps 755 mmHg 67%
    13:00 +33°C° 0 mm 3 mps 754 mmHg 64%
    14:00 +33°C° 0 mm 4 mps 754 mmHg 65%
    15:00 +32°C° 0 mm 4 mps 753 mmHg 66%
    16:00 +32°C° 0 mm 5 mps 753 mmHg 67%
    17:00 +30°C° 0.4 mm 4 mps 753 mmHg 72%
    18:00 +29°C° 0.4 mm 4 mps 754 mmHg 78%
    19:00 +28°C° 0.4 mm 4 mps 755 mmHg 83%
    20:00 +27°C° 0.3 mm 4 mps 755 mmHg 84%
    21:00 +27°C° 0.3 mm 4 mps 755 mmHg 86%
    22:00 +27°C° 0.3 mm 3 mps 756 mmHg 87%
    23:00 +27°C° 0.6 mm 3 mps 756 mmHg 87%
    Show more